Time,TemperatureF,DewpointF,PressureIn,WindDirection,WindDirectionDegrees,WindSpeedMPH,WindSpeedGustMPH,Humidity,HourlyPrecipIn,Conditions,Clouds,dailyrainin,SolarRadiationWatts/m^2,SoftwareType,DateUTC
2013-06-25 00:01:00,66.0,63.9,29.98,SE,126,0.5,2.0,93,0.00,RA,,0.00,0.0,WeatherDisplay:10.37,2013-06-25 04:01:00,
2013-06-25 00:06:00,66.0,63.9,29.98,SE,126,0.4,2.3,93,0.00,RA,,0.00,0.0,WeatherDisplay:10.37,2013-06-25 04:06:00,
2013-06-25 00:11:00,66.0,63.9,29.98,SSE,148,0.0,2.3,93,0.00,RA,,0.00,0.0,WeatherDisplay:10.37,2013-06-25 04:11:00,
2013-06-25 00:16:00,65.9,63.8,29.98,SSE,148,0.0,0.0,93,0.00,CLR,,0.00,0.0,WeatherDisplay:10.37,2013-06-25 04:16:00,
2013-06-25 00:21:00,66.0,63.9,29.98,SSE,148,0.0,1.2,93,0.00,CLR,,0.00,0.0,WeatherDisplay:10.37,2013-06-25 04:21:00,
2013-06-25 00:26:00,66.0,63.9,29.97,SSE,148,0.1,0.0,93,0.00,CLR,,0.00,0.0,WeatherDisplay:10.37,2013-06-25 04:26:00,
2013-06-25 00:31:00,65.9,63.8,29.98,SSE,148,0.8,2.3,93,0.00,CLR,,0.00,0.0,WeatherDisplay:10.37,2013-06-25 04:31:00,
2013-06-25 00:36:00,65.9,63.8,29.97,SSE,148,0.1,2.0,93,0.00,CLR,,0.00,0.0,WeatherDisplay:10.37,2013-06-25 04:36:00,
2013-06-25 00:41:00,65.9,63.8,29.97,SSE,148,0.0,0.0,93,0.00,CLR,,0.00,0.0,WeatherDisplay:10.37,2013-06-25 04:41:00,
2013-06-25 00:46:00,65.9,63.8,29.97,SSE,148,0.0,0.0,93,0.00,CLR,,0.00,0.0,WeatherDisplay:10.37,2013-06-25 04:46:00,
2013-06-25 00:51:00,65.9,63.8,29.97,SSE,148,0.0,0.0,93,0.00,CLR,,0.00,0.0,WeatherDisplay:10.37,2013-06-25 04:51:00,
2013-06-25 00:56:00,65.9,63.8,29.97,SSE,148,0.1,1.2,93,0.00,CLR,,0.00,0.0,WeatherDisplay:10.37,2013-06-25 04:56:00,
2013-06-25 01:01:00,65.9,63.8,29.97,SSE,148,0.0,0.0,93,0.00,CLR,,0.00,0.0,WeatherDisplay:10.37,2013-06-25 05:01:00,
2013-06-25 01:06:00,65.8,63.7,29.97,SSE,148,0.1,2.3,93,0.00,CLR,,0.00,0.0,WeatherDisplay:10.37,2013-06-25 05:06:00,
2013-06-25 01:11:00,65.7,63.3,29.96,SSE,153,1.2,2.3,92,0.00,CLR,,0.00,0.0,WeatherDisplay:10.37,2013-06-25 05:11:00,
2013-06-25 01:16:00,65.7,63.6,29.96,SSE,155,0.2,1.2,93,0.00,CLR,,0.00,0.0,WeatherDisplay:10.37,2013-06-25 05:16:00,
2013-06-25 01:21:00,65.7,63.6,29.96,South,180,3.4,8.1,93,0.00,CLR,,0.00,0.0,WeatherDisplay:10.37,2013-06-25 05:21:00,
2013-06-25 01:26:00,65.7,63.6,29.96,South,180,1.4,3.5,93,0.00,CLR,,0.00,0.0,WeatherDisplay:10.37,2013-06-25 05:26:00,
2013-06-25 01:31:00,65.7,63.3,29.96,South,180,0.0,0.0,92,0.00,CLR,,0.00,0.0,WeatherDisplay:10.37,2013-06-25 05:31:00,
2013-06-25 01:36:00,65.7,63.6,29.96,South,180,0.0,0.0,93,0.00,CLR,,0.00,0.0,WeatherDisplay:10.37,2013-06-25 05:36:00,
2013-06-25 01:41:00,65.7,63.6,29.96,South,180,0.0,0.0,93,0.00,CLR,,0.00,0.0,WeatherDisplay:10.37,2013-06-25 05:41:00,
2013-06-25 01:46:00,65.7,63.6,29.96,South,180,0.0,0.0,93,0.00,CLR,,0.00,0.0,WeatherDisplay:10.37,2013-06-25 05:46:00,
2013-06-25 01:51:00,65.6,63.2,29.96,South,180,0.0,0.0,92,0.00,CLR,,0.00,0.0,WeatherDisplay:10.37,2013-06-25 05:51:00,
2013-06-25 01:56:00,65.6,63.2,29.96,South,180,0.0,0.0,92,0.00,CLR,,0.00,0.0,WeatherDisplay:10.37,2013-06-25 05:56:00,
2013-06-25 02:01:00,65.5,63.1,29.96,South,180,0.0,0.0,92,0.00,CLR,,0.00,0.0,WeatherDisplay:10.37,2013-06-25 06:01:00,
2013-06-25 02:06:00,65.4,63.0,29.96,South,180,0.0,0.0,92,0.00,CLR,,0.00,0.0,WeatherDisplay:10.37,2013-06-25 06:06:00,
2013-06-25 02:11:00,65.4,63.3,29.96,South,180,0.0,1.2,93,0.00,CLR,,0.00,0.0,WeatherDisplay:10.37,2013-06-25 06:11:00,
2013-06-25 02:16:00,65.3,63.2,29.96,South,180,0.0,0.0,93,0.00,CLR,,0.00,0.0,WeatherDisplay:10.37,2013-06-25 06:16:00,
2013-06-25 02:21:00,65.3,63.2,29.96,South,180,0.0,0.0,93,0.00,CLR,,0.00,0.0,WeatherDisplay:10.37,2013-06-25 06:21:00,
2013-06-25 02:26:00,65.2,63.1,29.95,South,180,0.8,2.3,93,0.00,CLR,,0.00,0.0,WeatherDisplay:10.37,2013-06-25 06:26:00,
2013-06-25 02:31:00,65.0,62.9,29.95,South,180,0.0,1.0,93,0.00,CLR,,0.00,0.0,WeatherDisplay:10.37,2013-06-25 06:31:00,
2013-06-25 02:36:00,64.8,62.4,29.95,South,180,0.0,0.0,92,0.00,CLR,,0.00,0.0,WeatherDisplay:10.37,2013-06-25 06:36:00,
2013-06-25 02:41:00,64.7,62.3,29.94,South,180,0.0,0.0,92,0.00,CLR,,0.00,0.0,WeatherDisplay:10.37,2013-06-25 06:41:00,
2013-06-25 02:46:00,64.6,62.5,29.94,South,180,0.0,0.0,93,0.00,CLR,,0.00,0.0,WeatherDisplay:10.37,2013-06-25 06:46:00,
2013-06-25 02:51:00,64.6,62.5,29.94,South,180,0.0,0.0,93,0.00,CLR,,0.00,0.0,WeatherDisplay:10.37,2013-06-25 06:51:00,
2013-06-25 02:56:00,64.5,62.4,29.94,South,180,0.0,0.0,93,0.00,CLR,,0.00,0.0,WeatherDisplay:10.37,2013-06-25 06:56:00,
2013-06-25 03:01:00,64.4,62.3,29.94,South,180,1.4,2.3,93,0.00,CLR,,0.00,0.0,WeatherDisplay:10.37,2013-06-25 07:01:00,
2013-06-25 03:06:00,64.3,62.2,29.93,South,180,0.3,2.0,93,0.00,CLR,,0.00,0.0,WeatherDisplay:10.37,2013-06-25 07:06:00,
2013-06-25 03:11:00,64.2,61.8,29.93,South,180,0.0,1.2,92,0.00,CLR,,0.00,0.0,WeatherDisplay:10.37,2013-06-25 07:11:00,
2013-06-25 03:16:00,64.1,62.0,29.94,South,180,0.0,0.0,93,0.00,CLR,,0.00,0.0,WeatherDisplay:10.37,2013-06-25 07:16:00,
2013-06-25 03:21:00,64.0,61.9,29.94,South,180,0.0,0.0,93,0.00,CLR,,0.00,0.0,WeatherDisplay:10.37,2013-06-25 07:21:00,
2013-06-25 03:26:00,64.0,61.9,29.93,South,180,0.0,1.2,93,0.00,CLR,,0.00,0.0,WeatherDisplay:10.37,2013-06-25 07:26:00,
2013-06-25 03:31:00,64.0,61.9,29.93,South,180,0.0,0.0,93,0.00,CLR,,0.00,0.0,WeatherDisplay:10.37,2013-06-25 07:31:00,
2013-06-25 03:36:00,63.9,61.8,29.93,South,180,0.0,0.0,93,0.00,CLR,,0.00,0.0,WeatherDisplay:10.37,2013-06-25 07:36:00,
2013-06-25 03:42:00,63.8,61.7,29.93,South,180,0.0,1.2,93,0.00,CLR,,0.00,0.0,WeatherDisplay:10.37,2013-06-25 07:42:00,
2013-06-25 03:47:00,63.8,61.7,29.93,South,180,0.0,0.0,93,0.00,CLR,,0.00,0.0,WeatherDisplay:10.37,2013-06-25 07:47:00,
2013-06-25 03:52:00,63.8,61.7,29.93,South,180,0.0,0.0,93,0.00,CLR,,0.00,0.0,WeatherDisplay:10.37,2013-06-25 07:52:00,
2013-06-25 03:57:00,63.8,61.7,29.93,South,180,0.3,2.0,93,0.00,CLR,,0.00,0.0,WeatherDisplay:10.37,2013-06-25 07:57:00,
2013-06-25 04:02:00,63.7,61.6,29.93,South,180,0.0,1.2,93,0.00,CLR,,0.00,0.0,WeatherDisplay:10.37,2013-06-25 08:02:00,
2013-06-25 04:07:00,63.6,61.5,29.93,South,180,0.0,0.0,93,0.00,CLR,,0.00,0.0,WeatherDisplay:10.37,2013-06-25 08:07:00,
2013-06-25 04:12:00,63.5,61.4,29.93,South,180,0.0,0.0,93,0.00,CLR,,0.00,0.0,WeatherDisplay:10.37,2013-06-25 08:12:00,
2013-06-25 04:17:00,63.4,61.3,29.94,South,180,0.0,0.0,93,0.00,CLR,,0.00,0.0,WeatherDisplay:10.37,2013-06-25 08:17:00,
2013-06-25 04:22:00,63.3,61.2,29.94,South,180,0.0,0.0,93,0.00,CLR,,0.00,0.0,WeatherDisplay:10.37,2013-06-25 08:22:00,
2013-06-25 04:27:00,63.4,61.3,29.93,South,180,1.8,3.5,93,0.00,CLR,,0.00,0.0,WeatherDisplay:10.37,2013-06-25 08:27:00,
2013-06-25 04:32:00,63.5,61.4,29.93,South,180,0.0,0.0,93,0.00,CLR,,0.00,0.0,WeatherDisplay:10.37,2013-06-25 08:32:00,
2013-06-25 04:37:00,63.6,61.5,29.93,South,180,0.0,0.0,93,0.00,CLR,,0.00,0.0,WeatherDisplay:10.37,2013-06-25 08:37:00,
2013-06-25 04:42:00,63.4,61.3,29.93,South,180,0.0,0.0,93,0.00,CLR,,0.00,0.0,WeatherDisplay:10.37,2013-06-25 08:42:00,
2013-06-25 04:47:00,63.2,61.1,29.94,South,180,0.0,0.0,93,0.00,CLR,,0.00,0.0,WeatherDisplay:10.37,2013-06-25 08:47:00,
2013-06-25 04:52:00,63.1,61.0,29.94,South,180,0.0,0.0,93,0.00,CLR,,0.00,0.0,WeatherDisplay:10.37,2013-06-25 08:52:00,
2013-06-25 04:57:00,63.1,61.0,29.94,South,180,0.0,0.0,93,0.00,CLR,,0.00,0.0,WeatherDisplay:10.37,2013-06-25 08:57:00,
2013-06-25 05:02:00,63.0,60.9,29.94,South,180,0.0,0.0,93,0.00,CLR,,0.00,0.0,WeatherDisplay:10.37,2013-06-25 09:02:00,
2013-06-25 05:07:00,63.0,60.9,29.94,South,180,0.0,0.0,93,0.00,CLR,,0.00,0.0,WeatherDisplay:10.37,2013-06-25 09:07:00,
2013-06-25 05:12:00,63.0,60.9,29.94,South,180,0.0,0.0,93,0.00,CLR,,0.00,0.0,WeatherDisplay:10.37,2013-06-25 09:12:00,
2013-06-25 05:17:00,62.9,60.8,29.94,South,180,0.0,0.0,93,0.00,CLR,,0.00,0.0,WeatherDisplay:10.37,2013-06-25 09:17:00,
2013-06-25 05:22:00,62.7,60.6,29.94,South,180,0.0,0.0,93,0.00,CLR,,0.00,0.0,WeatherDisplay:10.37,2013-06-25 09:22:00,
2013-06-25 05:27:00,62.6,60.5,29.94,South,180,0.0,0.0,93,0.00,CLR,,0.00,7.9,WeatherDisplay:10.37,2013-06-25 09:27:00,
2013-06-25 05:32:00,62.6,60.5,29.94,South,180,0.0,0.0,93,0.00,CLR,,0.00,12.4,WeatherDisplay:10.37,2013-06-25 09:32:00,
2013-06-25 05:37:00,62.6,60.5,29.94,South,180,0.0,0.0,93,0.00,BKN,,0.00,18.1,WeatherDisplay:10.37,2013-06-25 09:37:00,
2013-06-25 05:42:00,62.6,61.1,29.94,South,180,0.0,0.0,95,0.00,BKN,,0.00,23.7,WeatherDisplay:10.37,2013-06-25 09:42:00,
2013-06-25 05:47:00,62.5,60.4,29.94,South,180,0.0,0.0,93,0.00,BKN,,0.00,29.4,WeatherDisplay:10.37,2013-06-25 09:47:00,
2013-06-25 05:52:00,62.5,60.4,29.94,South,180,0.0,0.0,93,0.00,BKN,,0.00,39.5,WeatherDisplay:10.37,2013-06-25 09:52:00,
2013-06-25 05:57:00,62.5,60.4,29.94,South,180,0.0,1.2,93,0.00,BKN,,0.00,49.7,WeatherDisplay:10.37,2013-06-25 09:57:00,
2013-06-25 06:02:00,62.6,61.4,29.94,South,180,0.7,3.5,96,0.00,BKN,,0.00,67.8,WeatherDisplay:10.37,2013-06-25 10:02:00,
2013-06-25 06:07:00,62.9,61.1,29.94,South,180,0.0,0.0,94,0.00,SCT,,0.00,83.6,WeatherDisplay:10.37,2013-06-25 10:07:00,
2013-06-25 06:12:00,63.4,61.6,29.94,South,180,0.1,1.2,94,0.00,SCT,,0.00,89.3,WeatherDisplay:10.37,2013-06-25 10:12:00,
2013-06-25 06:17:00,63.7,61.9,29.94,South,180,1.1,2.3,94,0.00,SCT,,0.00,107.3,WeatherDisplay:10.37,2013-06-25 10:17:00,
2013-06-25 06:22:00,64.0,62.2,29.93,South,178,1.7,4.0,94,0.00,SCT,,0.00,131.1,WeatherDisplay:10.37,2013-06-25 10:22:00,
2013-06-25 06:27:00,64.2,62.4,29.93,South,178,0.0,0.0,94,0.00,SCT,,0.00,131.1,WeatherDisplay:10.37,2013-06-25 10:27:00,
2013-06-25 06:32:00,64.5,62.7,29.93,South,178,0.0,0.0,94,0.00,SCT,,0.00,109.6,WeatherDisplay:10.37,2013-06-25 10:32:00,
2013-06-25 06:37:00,64.7,62.9,29.93,South,178,0.1,1.2,94,0.00,BKN,,0.00,113.0,WeatherDisplay:10.37,2013-06-25 10:37:00,
2013-06-25 06:42:00,64.8,62.7,29.93,South,178,0.0,0.0,93,0.00,SCT,,0.00,136.7,WeatherDisplay:10.37,2013-06-25 10:42:00,
2013-06-25 06:47:00,65.1,63.0,29.93,South,178,0.0,0.0,93,0.00,SCT,,0.00,154.8,WeatherDisplay:10.37,2013-06-25 10:47:00,
2013-06-25 06:52:00,65.3,63.2,29.93,South,178,0.0,0.0,93,0.00,SCT,,0.00,165.0,WeatherDisplay:10.37,2013-06-25 10:52:00,
2013-06-25 06:57:00,65.8,63.7,29.93,South,178,0.0,1.2,93,0.00,SCT,,0.00,178.5,WeatherDisplay:10.37,2013-06-25 10:57:00,
2013-06-25 07:02:00,66.3,64.2,29.93,South,178,0.0,0.0,93,0.00,SCT,,0.00,180.8,WeatherDisplay:10.37,2013-06-25 11:02:00,
2013-06-25 07:07:00,66.8,64.4,29.93,South,178,0.0,0.0,92,0.00,SCT,,0.00,186.4,WeatherDisplay:10.37,2013-06-25 11:07:00,
2013-06-25 07:12:00,67.4,65.0,29.93,South,178,0.0,0.0,92,0.00,SCT,,0.00,204.5,WeatherDisplay:10.37,2013-06-25 11:12:00,
2013-06-25 07:17:00,67.8,65.1,29.93,South,178,0.0,0.0,91,0.00,SCT,,0.00,206.8,WeatherDisplay:10.37,2013-06-25 11:17:00,
2013-06-25 07:22:00,68.2,65.5,29.93,South,178,0.0,0.0,91,0.00,SCT,,0.00,241.8,WeatherDisplay:10.37,2013-06-25 11:22:00,
2013-06-25 07:27:00,68.8,66.1,29.92,South,178,0.1,0.0,91,0.00,SCT,,0.00,274.6,WeatherDisplay:10.37,2013-06-25 11:27:00,
2013-06-25 07:32:00,69.5,66.4,29.92,South,178,0.6,2.3,90,0.00,FEW,,0.00,311.9,WeatherDisplay:10.37,2013-06-25 11:32:00,
2013-06-25 07:38:00,70.0,66.9,29.92,South,178,0.5,2.3,90,0.00,FEW,,0.00,330.0,WeatherDisplay:10.37,2013-06-25 11:38:00,
2013-06-25 07:43:00,70.6,67.2,29.92,South,178,0.0,2.3,89,0.00,FEW,,0.00,357.1,WeatherDisplay:10.37,2013-06-25 11:43:00,
2013-06-25 07:48:00,71.2,67.5,29.92,South,178,0.4,1.0,88,0.00,FEW,,0.00,377.4,WeatherDisplay:10.37,2013-06-25 11:48:00,
2013-06-25 07:53:00,71.5,67.4,29.92,South,178,0.4,1.2,87,0.00,FEW,,0.00,348.0,WeatherDisplay:10.37,2013-06-25 11:53:00,
2013-06-25 07:58:00,71.9,67.1,29.92,South,179,0.0,1.0,85,0.00,FEW,,0.00,333.4,WeatherDisplay:10.37,2013-06-25 11:58:00,
2013-06-25 08:03:00,72.1,67.3,29.92,South,179,0.3,2.0,85,0.00,FEW,,0.00,381.9,WeatherDisplay:10.37,2013-06-25 12:03:00,
2013-06-25 08:08:00,72.2,67.4,29.92,South,183,0.0,2.3,85,0.00,FEW,,0.00,413.6,WeatherDisplay:10.37,2013-06-25 12:08:00,
2013-06-25 08:13:00,72.3,67.9,29.92,South,183,0.0,1.2,86,0.00,FEW,,0.00,409.1,WeatherDisplay:10.37,2013-06-25 12:13:00,
2013-06-25 08:18:00,72.4,67.6,29.92,South,183,1.2,1.2,85,0.00,FEW,,0.00,427.1,WeatherDisplay:10.37,2013-06-25 12:18:00,
2013-06-25 08:23:00,72.6,68.2,29.92,South,183,1.5,1.5,86,0.00,FEW,,0.00,464.4,WeatherDisplay:10.37,2013-06-25 12:23:00,
2013-06-25 08:28:00,72.6,67.8,29.92,SW,222,0.9,3.0,85,0.00,FEW,,0.00,479.1,WeatherDisplay:10.37,2013-06-25 12:28:00,
2013-06-25 08:33:00,72.6,67.5,29.92,SW,222,1.1,2.3,84,0.00,FEW,,0.00,514.1,WeatherDisplay:10.37,2013-06-25 12:33:00,
2013-06-25 08:38:00,72.5,67.4,29.92,SSW,199,3.5,5.0,84,0.00,FEW,,0.00,540.1,WeatherDisplay:10.37,2013-06-25 12:38:00,
2013-06-25 08:43:00,72.6,67.5,29.92,SSW,209,2.8,3.5,84,0.00,FEW,,0.00,558.2,WeatherDisplay:10.37,2013-06-25 12:43:00,
2013-06-25 08:48:00,72.9,67.4,29.92,SSW,195,1.8,3.5,83,0.00,FEW,,0.00,568.4,WeatherDisplay:10.37,2013-06-25 12:48:00,
2013-06-25 08:53:00,73.2,67.7,29.92,South,187,2.4,3.5,83,0.00,FEW,,0.00,553.7,WeatherDisplay:10.37,2013-06-25 12:53:00,
2013-06-25 08:58:00,73.3,67.8,29.93,SSW,199,2.1,4.6,83,0.00,FEW,,0.00,513.0,WeatherDisplay:10.37,2013-06-25 12:58:00,
2013-06-25 09:03:00,73.5,68.0,29.92,SSW,199,2.8,8.1,83,0.00,FEW,,0.00,504.0,WeatherDisplay:10.37,2013-06-25 13:03:00,
2013-06-25 09:08:00,73.6,68.1,29.92,South,188,4.4,6.9,83,0.00,FEW,,0.00,563.9,WeatherDisplay:10.37,2013-06-25 13:08:00,
2013-06-25 09:13:00,73.9,68.1,29.92,South,189,3.3,4.0,82,0.00,FEW,,0.00,605.7,WeatherDisplay:10.37,2013-06-25 13:13:00,
2013-06-25 09:18:00,74.5,69.0,29.92,South,184,3.0,5.0,83,0.00,FEW,,0.00,636.2,WeatherDisplay:10.37,2013-06-25 13:18:00,
2013-06-25 09:23:00,74.9,68.7,29.92,South,175,4.0,10.4,81,0.00,FEW,,0.00,652.0,WeatherDisplay:10.37,2013-06-25 13:23:00,
2013-06-25 09:28:00,75.0,68.4,29.92,South,184,2.0,5.8,80,0.00,FEW,,0.00,675.7,WeatherDisplay:10.37,2013-06-25 13:28:00,
2013-06-25 09:33:00,75.3,68.3,29.92,South,184,2.3,6.9,79,0.00,FEW,,0.00,681.4,WeatherDisplay:10.37,2013-06-25 13:33:00,
2013-06-25 09:38:00,75.9,68.9,29.92,South,182,1.7,2.3,79,0.00,FEW,,0.00,699.5,WeatherDisplay:10.37,2013-06-25 13:38:00,
2013-06-25 09:43:00,76.3,69.3,29.92,South,183,3.1,5.8,79,0.00,FEW,,0.00,731.1,WeatherDisplay:10.37,2013-06-25 13:43:00,
2013-06-25 09:48:00,76.6,69.6,29.92,South,176,4.0,8.0,79,0.00,CLR,,0.00,760.5,WeatherDisplay:10.37,2013-06-25 13:48:00,
2013-06-25 09:53:00,77.0,69.6,29.92,South,187,1.2,4.6,78,0.00,FEW,,0.00,739.0,WeatherDisplay:10.37,2013-06-25 13:53:00,
2013-06-25 09:58:00,77.6,69.8,29.91,South,187,1.1,3.5,77,0.00,FEW,,0.00,754.8,WeatherDisplay:10.37,2013-06-25 13:58:00,
2013-06-25 10:03:00,78.0,69.8,29.91,South,181,1.3,3.5,76,0.00,FEW,,0.00,780.8,WeatherDisplay:10.37,2013-06-25 14:03:00,
2013-06-25 10:08:00,78.4,69.8,29.91,South,184,0.1,1.2,75,0.00,FEW,,0.00,765.0,WeatherDisplay:10.37,2013-06-25 14:08:00,
2013-06-25 10:13:00,78.9,70.7,29.91,South,184,0.5,3.0,76,0.00,FEW,,0.00,780.8,WeatherDisplay:10.37,2013-06-25 14:13:00,
2013-06-25 10:18:00,79.3,69.9,29.91,South,184,0.4,2.3,73,0.00,FEW,,0.00,794.4,WeatherDisplay:10.37,2013-06-25 14:18:00,
2013-06-25 10:23:00,79.7,69.9,29.91,South,184,0.8,3.5,72,0.00,FEW,,0.00,822.6,WeatherDisplay:10.37,2013-06-25 14:23:00,
2013-06-25 10:28:00,79.8,70.4,29.91,South,184,0.0,0.0,73,0.00,FEW,,0.00,826.0,WeatherDisplay:10.37,2013-06-25 14:28:00,
2013-06-25 10:33:00,79.9,70.9,29.91,South,184,2.9,4.6,74,0.00,CLR,,0.00,875.8,WeatherDisplay:10.37,2013-06-25 14:33:00,
2013-06-25 10:38:00,80.3,70.9,29.91,South,185,1.1,3.0,73,0.00,CLR,,0.00,878.0,WeatherDisplay:10.37,2013-06-25 14:38:00,
2013-06-25 10:43:00,80.7,71.6,29.91,SSW,192,3.1,4.6,74,0.00,CLR,,0.00,909.6,WeatherDisplay:10.37,2013-06-25 14:43:00,
2013-06-25 10:48:00,80.9,71.4,29.91,SSW,192,1.5,2.3,73,0.00,CLR,,0.00,914.2,WeatherDisplay:10.37,2013-06-25 14:48:00,
2013-06-25 10:53:00,81.3,70.6,29.91,SSW,192,0.1,1.2,70,0.00,CLR,,0.00,909.6,WeatherDisplay:10.37,2013-06-25 14:53:00,
2013-06-25 10:58:00,81.4,70.2,29.91,SSW,192,0.7,3.5,69,0.00,CLR,,0.00,878.0,WeatherDisplay:10.37,2013-06-25 14:58:00,
2013-06-25 11:03:00,81.4,70.2,29.91,SSW,192,0.3,1.2,69,0.00,CLR,,0.00,937.9,WeatherDisplay:10.37,2013-06-25 15:03:00,
2013-06-25 11:08:00,81.7,71.0,29.91,South,191,0.9,3.5,70,0.00,CLR,,0.00,914.2,WeatherDisplay:10.37,2013-06-25 15:08:00,
2013-06-25 11:13:00,81.9,72.0,29.91,South,191,0.1,1.2,72,0.00,CLR,,0.00,891.6,WeatherDisplay:10.37,2013-06-25 15:13:00,
2013-06-25 11:18:00,82.2,71.4,29.91,South,191,0.1,1.2,70,0.00,CLR,,0.00,937.9,WeatherDisplay:10.37,2013-06-25 15:18:00,
2013-06-25 11:23:00,82.4,70.8,29.90,South,188,0.1,2.3,68,0.00,CLR,,0.00,941.3,WeatherDisplay:10.37,2013-06-25 15:23:00,
2013-06-25 11:28:00,82.8,72.4,29.90,South,187,2.4,5.0,71,0.00,CLR,,0.00,961.6,WeatherDisplay:10.37,2013-06-25 15:28:00,
2013-06-25 11:33:00,83.1,71.4,29.90,SE,146,1.1,3.5,68,0.00,CLR,,0.00,956.0,WeatherDisplay:10.37,2013-06-25 15:33:00,
2013-06-25 11:38:00,83.2,72.0,29.90,South,179,1.3,6.0,69,0.00,CLR,,0.00,979.7,WeatherDisplay:10.37,2013-06-25 15:38:00,
2013-06-25 11:43:00,83.3,70.8,29.90,South,184,0.9,2.3,66,0.00,CLR,,0.00,995.5,WeatherDisplay:10.37,2013-06-25 15:43:00,
2013-06-25 11:48:00,83.7,72.4,29.89,South,184,0.0,1.2,69,0.00,CLR,,0.00,1003.4,WeatherDisplay:10.37,2013-06-25 15:48:00,
2013-06-25 11:53:00,84.2,72.0,29.89,South,186,0.2,2.3,67,0.00,CLR,,0.00,1004.6,WeatherDisplay:10.37,2013-06-25 15:53:00,
2013-06-25 11:58:00,84.7,72.1,29.89,South,186,0.1,1.2,66,0.00,CLR,,0.00,1012.5,WeatherDisplay:10.37,2013-06-25 15:58:00,
2013-06-25 12:03:00,84.9,70.9,29.89,South,186,0.2,1.2,63,0.00,CLR,,0.00,1009.1,WeatherDisplay:10.37,2013-06-25 16:03:00,
2013-06-25 12:08:00,85.0,72.8,29.89,South,188,0.5,3.5,67,0.00,CLR,,0.00,1003.4,WeatherDisplay:10.37,2013-06-25 16:08:00,
2013-06-25 12:14:00,85.1,72.9,29.88,SSE,162,1.3,4.0,67,0.00,CLR,,0.00,995.5,WeatherDisplay:10.37,2013-06-25 16:14:00,
2013-06-25 12:19:00,85.3,73.1,29.88,SSE,161,1.1,3.5,67,0.00,CLR,,0.00,1012.5,WeatherDisplay:10.37,2013-06-25 16:19:00,
2013-06-25 12:24:00,85.7,71.2,29.88,SSE,161,0.0,1.2,62,0.00,CLR,,0.00,1027.2,WeatherDisplay:10.37,2013-06-25 16:24:00,
2013-06-25 12:29:00,86.0,72.9,29.88,South,187,3.3,6.9,65,0.00,CLR,,0.00,1014.7,WeatherDisplay:10.37,2013-06-25 16:29:00,
2013-06-25 12:34:00,85.9,72.8,29.87,South,178,2.3,5.0,65,0.00,CLR,,0.00,1024.9,WeatherDisplay:10.37,2013-06-25 16:34:00,
2013-06-25 12:39:00,86.0,72.9,29.87,South,169,0.9,4.6,65,0.00,CLR,,0.00,1021.5,WeatherDisplay:10.37,2013-06-25 16:39:00,
2013-06-25 12:44:00,86.0,71.9,29.87,South,175,2.3,6.9,63,0.00,CLR,,0.00,1009.1,WeatherDisplay:10.37,2013-06-25 16:44:00,
2013-06-25 12:49:00,86.0,72.9,29.86,SE,133,3.8,6.9,65,0.00,CLR,,0.00,1022.6,WeatherDisplay:10.37,2013-06-25 16:49:00,
2013-06-25 12:54:00,86.1,71.6,29.86,South,190,0.9,3.5,62,0.00,CLR,,0.00,1017.0,WeatherDisplay:10.37,2013-06-25 16:54:00,
2013-06-25 12:59:00,86.4,74.1,29.85,South,189,1.2,2.3,67,0.00,CLR,,0.00,977.5,WeatherDisplay:10.37,2013-06-25 16:59:00,
2013-06-25 13:04:00,86.5,74.2,29.85,SE,127,3.4,5.0,67,0.00,CLR,,0.00,969.5,WeatherDisplay:10.37,2013-06-25 17:04:00,
2013-06-25 13:09:00,86.6,73.9,29.85,ESE,115,0.1,1.2,66,0.00,CLR,,0.00,1017.0,WeatherDisplay:10.37,2013-06-25 17:09:00,
2013-06-25 13:14:00,86.6,72.5,29.85,South,173,2.5,3.5,63,0.00,CLR,,0.00,1012.5,WeatherDisplay:10.37,2013-06-25 17:14:00,
2013-06-25 13:19:00,86.8,73.2,29.84,South,173,0.1,1.2,64,0.00,CLR,,0.00,1009.1,WeatherDisplay:10.37,2013-06-25 17:19:00,
2013-06-25 13:24:00,86.9,73.3,29.84,SSE,164,3.8,6.9,64,0.00,CLR,,0.00,1012.5,WeatherDisplay:10.37,2013-06-25 17:24:00,
2013-06-25 13:29:00,87.0,73.8,29.84,South,175,2.5,6.9,65,0.00,CLR,,0.00,998.9,WeatherDisplay:10.37,2013-06-25 17:29:00,
2013-06-25 13:34:00,87.2,74.0,29.83,South,184,0.7,4.6,65,0.00,CLR,,0.00,995.5,WeatherDisplay:10.37,2013-06-25 17:34:00,
2013-06-25 13:39:00,87.3,74.1,29.83,South,188,1.4,4.0,65,0.00,CLR,,0.00,996.7,WeatherDisplay:10.37,2013-06-25 17:39:00,
2013-06-25 13:44:00,87.3,74.1,29.82,South,189,6.9,10.0,65,0.00,CLR,,0.00,993.3,WeatherDisplay:10.37,2013-06-25 17:44:00,
2013-06-25 13:49:00,87.3,73.2,29.82,South,173,1.3,2.3,63,0.00,CLR,,0.00,1001.2,WeatherDisplay:10.37,2013-06-25 17:49:00,
2013-06-25 13:54:00,87.5,72.4,29.82,South,188,2.4,4.0,61,0.00,CLR,,0.00,1072.4,WeatherDisplay:10.37,2013-06-25 17:54:00,
2013-06-25 13:59:00,87.2,72.6,29.82,South,185,1.4,6.9,62,0.00,FEW,,0.00,466.7,WeatherDisplay:10.37,2013-06-25 17:59:00,
2013-06-25 14:04:00,86.9,72.8,29.82,SSW,205,2.1,4.6,63,0.00,BKN,,0.00,438.4,WeatherDisplay:10.37,2013-06-25 18:04:00,
2013-06-25 14:09:00,87.2,74.0,29.81,South,191,0.6,3.5,65,0.00,FEW,,0.00,1032.8,WeatherDisplay:10.37,2013-06-25 18:09:00,
2013-06-25 14:14:00,87.6,74.4,29.81,SSW,206,3.5,5.8,65,0.00,FEW,,0.00,760.5,WeatherDisplay:10.37,2013-06-25 18:14:00,
2013-06-25 14:19:00,87.6,72.0,29.81,South,183,1.1,3.5,60,0.00,CLR,,0.00,1043.0,WeatherDisplay:10.37,2013-06-25 18:19:00,
2013-06-25 14:24:00,87.7,74.5,29.80,SSW,196,1.7,4.6,65,0.00,CLR,,0.00,917.6,WeatherDisplay:10.37,2013-06-25 18:24:00,
2013-06-25 14:29:00,87.9,72.3,29.80,SSW,197,3.5,4.6,60,0.00,CLR,,0.00,883.7,WeatherDisplay:10.37,2013-06-25 18:29:00,
2013-06-25 14:34:00,87.7,73.5,29.80,SSW,192,3.8,8.1,63,0.00,CLR,,0.00,946.9,WeatherDisplay:10.37,2013-06-25 18:34:00,
2013-06-25 14:39:00,87.3,71.7,29.80,SW,222,3.1,4.6,60,0.00,CLR,,0.00,979.7,WeatherDisplay:10.37,2013-06-25 18:39:00,
2013-06-25 14:44:00,87.3,72.2,29.79,SSW,200,4.6,11.5,61,0.00,CLR,,0.00,993.3,WeatherDisplay:10.37,2013-06-25 18:44:00,
2013-06-25 14:49:00,87.2,73.1,29.79,SSW,192,2.6,6.9,63,0.00,CLR,,0.00,1090.5,WeatherDisplay:10.37,2013-06-25 18:49:00,
2013-06-25 14:54:00,87.3,71.7,29.78,SSW,211,2.1,3.5,60,0.00,FEW,,0.00,1070.1,WeatherDisplay:10.37,2013-06-25 18:54:00,
2013-06-25 14:59:00,87.3,71.2,29.78,SSW,212,2.7,4.6,59,0.00,CLR,,0.00,963.9,WeatherDisplay:10.37,2013-06-25 18:59:00,
2013-06-25 15:04:00,86.7,71.6,29.78,SSW,205,3.9,6.9,61,0.00,BKN,,0.00,379.7,WeatherDisplay:10.37,2013-06-25 19:04:00,
2013-06-25 15:09:00,86.6,71.5,29.78,SSW,207,3.4,6.9,61,0.00,CLR,,0.00,1029.4,WeatherDisplay:10.37,2013-06-25 19:09:00,
2013-06-25 15:14:00,87.2,71.6,29.78,SW,229,5.2,8.1,60,0.00,CLR,,0.00,927.7,WeatherDisplay:10.37,2013-06-25 19:14:00,
2013-06-25 15:19:00,87.6,72.0,29.78,South,184,5.7,9.2,60,0.00,CLR,,0.00,881.4,WeatherDisplay:10.37,2013-06-25 19:19:00,
2013-06-25 15:24:00,87.9,71.8,29.77,SSW,202,3.6,9.2,59,0.00,FEW,,0.00,856.5,WeatherDisplay:10.37,2013-06-25 19:24:00,
2013-06-25 15:29:00,87.8,72.7,29.77,South,188,4.9,10.0,61,0.00,SCT,,0.00,492.7,WeatherDisplay:10.37,2013-06-25 19:29:00,
2013-06-25 15:34:00,86.7,71.2,29.77,SSW,211,4.7,10.4,60,0.00,BKN,,0.00,256.5,WeatherDisplay:10.37,2013-06-25 19:34:00,
2013-06-25 15:39:00,85.6,70.6,29.76,SSW,192,5.3,11.5,61,0.00,OVC,,0.00,196.6,WeatherDisplay:10.37,2013-06-25 19:39:00,
2013-06-25 15:44:00,84.8,69.4,29.76,SSW,213,3.1,6.9,60,0.00,OVC,,0.00,135.6,WeatherDisplay:10.37,2013-06-25 19:44:00,
2013-06-25 15:49:00,84.2,69.8,29.76,SW,216,4.8,6.9,62,0.00,OVC,,0.00,91.5,WeatherDisplay:10.37,2013-06-25 19:49:00,
2013-06-25 15:54:00,83.7,68.8,29.76,SW,217,6.7,16.1,61,0.00,OVC,,0.00,63.3,WeatherDisplay:10.37,2013-06-25 19:54:00,
2013-06-25 15:59:00,83.3,68.9,29.76,SW,222,2.4,3.5,62,0.00,OVC,,0.00,55.4,WeatherDisplay:10.37,2013-06-25 19:59:00,
2013-06-25 16:04:00,83.0,69.6,29.76,SW,222,0.4,2.0,64,0.00,OVC,,0.00,65.5,WeatherDisplay:10.37,2013-06-25 20:04:00,
2013-06-25 16:09:00,82.8,69.8,29.76,SW,222,0.1,1.2,65,0.00,OVC,,0.00,91.5,WeatherDisplay:10.37,2013-06-25 20:09:00,
2013-06-25 16:14:00,82.5,70.0,29.75,SW,222,0.1,1.2,66,0.00,OVC,,0.00,115.3,WeatherDisplay:10.37,2013-06-25 20:14:00,
2013-06-25 16:19:00,82.4,70.3,29.76,SW,222,1.8,3.5,67,0.00,OVC,,0.00,131.1,WeatherDisplay:10.37,2013-06-25 20:19:00,
2013-06-25 16:24:00,82.0,72.1,29.77,WNW,290,3.0,5.8,72,0.00,OVC,,0.00,113.0,WeatherDisplay:10.37,2013-06-25 20:24:00,
2013-06-25 16:29:00,81.2,70.9,29.77,WNW,293,4.0,4.6,71,0.00,OVC,,0.00,107.3,WeatherDisplay:10.37,2013-06-25 20:29:00,
2013-06-25 16:34:00,80.2,70.8,29.78,WNW,293,0.4,2.3,73,0.00,OVC,,0.00,81.4,WeatherDisplay:10.37,2013-06-25 20:34:00,
2013-06-25 16:39:00,79.5,71.3,29.77,WNW,293,1.1,2.3,76,0.00,OVC,,0.00,94.9,WeatherDisplay:10.37,2013-06-25 20:39:00,
2013-06-25 16:44:00,78.9,70.7,29.76,WNW,293,0.0,1.2,76,0.00,OVC,,0.00,75.7,WeatherDisplay:10.37,2013-06-25 20:44:00,
2013-06-25 16:49:00,78.4,71.0,29.77,WNW,293,0.0,0.0,78,0.00,OVC,,0.00,97.2,WeatherDisplay:10.37,2013-06-25 20:49:00,
2013-06-25 16:54:00,78.0,70.6,29.76,WNW,293,0.0,1.2,78,0.00,OVC,,0.00,175.2,WeatherDisplay:10.37,2013-06-25 20:54:00,
2013-06-25 16:59:00,77.8,70.8,29.76,WNW,293,0.0,0.0,79,0.00,BKN,,0.00,198.9,WeatherDisplay:10.37,2013-06-25 20:59:00,
2013-06-25 17:05:00,77.7,70.3,29.77,WNW,293,1.3,3.0,78,0.00,BKN,,0.00,110.7,WeatherDisplay:10.37,2013-06-25 21:05:00,
2013-06-25 17:10:00,77.3,69.9,29.78,WNW,295,6.1,11.5,78,0.00,OVC,,0.00,20.3,WeatherDisplay:10.37,2013-06-25 21:10:00,
2013-06-25 17:15:00,76.5,69.9,29.78,WNW,298,5.1,5.8,80,0.00,OVC,,0.00,18.1,WeatherDisplay:10.37,2013-06-25 21:15:00,
2013-06-25 17:20:00,75.5,69.3,29.79,WNW,293,9.1,12.7,81,0.01,RA,,0.01,7.9,WeatherDisplay:10.37,2013-06-25 21:20:00,
2013-06-25 17:25:00,74.5,69.3,29.80,WNW,294,7.1,11.5,84,0.08,RA,,0.09,5.7,WeatherDisplay:10.37,2013-06-25 21:25:00,
2013-06-25 17:30:00,73.6,69.2,29.80,WNW,296,3.9,6.9,86,0.21,RA,,0.23,18.1,WeatherDisplay:10.37,2013-06-25 21:30:00,
2013-06-25 17:35:00,72.8,69.0,29.79,WNW,298,3.3,6.9,88,0.34,RA,,0.35,39.5,WeatherDisplay:10.37,2013-06-25 21:35:00,
2013-06-25 17:40:00,72.2,68.8,29.79,WNW,298,1.9,3.5,89,0.40,RA,,0.40,118.7,WeatherDisplay:10.37,2013-06-25 21:40:00,
2013-06-25 17:45:00,72.1,69.0,29.80,WNW,298,0.0,0.0,90,0.40,RA,,0.40,280.2,WeatherDisplay:10.37,2013-06-25 21:45:00,
2013-06-25 17:50:00,72.2,69.4,29.80,WNW,298,0.1,2.0,91,0.40,FEW,,0.40,259.9,WeatherDisplay:10.37,2013-06-25 21:50:00,
2013-06-25 17:55:00,72.5,70.0,29.79,ESE,106,2.5,4.6,92,0.40,FEW,,0.40,241.8,WeatherDisplay:10.37,2013-06-25 21:55:00,
2013-06-25 18:00:00,72.7,69.9,29.79,ESE,119,1.0,4.0,91,0.40,FEW,,0.40,170.6,WeatherDisplay:10.37,2013-06-25 22:00:00,
2013-06-25 18:05:00,72.6,69.8,29.79,ESE,117,2.0,4.6,91,0.40,SCT,,0.40,143.5,WeatherDisplay:10.37,2013-06-25 22:05:00,
2013-06-25 18:10:00,72.6,69.8,29.78,ESE,119,0.1,5.8,91,0.40,SCT,,0.40,232.8,WeatherDisplay:10.37,2013-06-25 22:10:00,
2013-06-25 18:15:00,72.7,69.9,29.79,ESE,121,0.0,1.2,91,0.40,CLR,,0.40,248.6,WeatherDisplay:10.37,2013-06-25 22:15:00,
2013-06-25 18:20:00,73.0,70.2,29.79,ESE,121,0.1,0.0,91,0.39,CLR,,0.40,274.6,WeatherDisplay:10.37,2013-06-25 22:20:00,
2013-06-25 18:25:00,73.4,70.9,29.79,ESE,121,0.0,0.0,92,0.32,FEW,,0.40,178.5,WeatherDisplay:10.37,2013-06-25 22:25:00,
2013-06-25 18:30:00,73.5,70.7,29.79,ESE,121,0.3,0.0,91,0.19,FEW,,0.40,167.2,WeatherDisplay:10.37,2013-06-25 22:30:00,
2013-06-25 18:35:00,73.7,70.6,29.79,ESE,121,0.0,0.0,90,0.06,FEW,,0.40,162.7,WeatherDisplay:10.37,2013-06-25 22:35:00,
2013-06-25 18:40:00,73.8,70.7,29.79,ESE,121,0.8,1.2,90,0.00,FEW,,0.40,136.7,WeatherDisplay:10.37,2013-06-25 22:40:00,
2013-06-25 18:45:00,73.9,70.8,29.79,ESE,121,1.0,1.2,90,0.00,SCT,,0.40,127.7,WeatherDisplay:10.37,2013-06-25 22:45:00,
2013-06-25 18:50:00,73.9,70.8,29.80,ESE,121,0.0,0.0,90,0.00,SCT,,0.40,105.1,WeatherDisplay:10.37,2013-06-25 22:50:00,
2013-06-25 18:55:00,73.8,70.4,29.80,ESE,121,0.0,2.3,89,0.00,SCT,,0.40,107.3,WeatherDisplay:10.37,2013-06-25 22:55:00,
2013-06-25 19:00:00,73.7,70.6,29.80,ESE,121,0.0,1.2,90,0.00,SCT,,0.40,105.1,WeatherDisplay:10.37,2013-06-25 23:00:00,
2013-06-25 19:05:00,73.7,70.6,29.79,ESE,121,0.0,1.2,90,0.00,BKN,,0.40,79.1,WeatherDisplay:10.37,2013-06-25 23:05:00,
2013-06-25 19:10:00,73.6,70.5,29.79,ESE,121,0.0,0.0,90,0.00,BKN,,0.40,53.1,WeatherDisplay:10.37,2013-06-25 23:10:00,
2013-06-25 19:15:00,73.5,70.7,29.79,ESE,121,0.0,0.0,91,0.00,BKN,,0.40,63.3,WeatherDisplay:10.37,2013-06-25 23:15:00,
2013-06-25 19:20:00,73.4,70.3,29.79,ESE,121,0.0,0.0,90,0.00,BKN,,0.40,79.1,WeatherDisplay:10.37,2013-06-25 23:20:00,
2013-06-25 19:25:00,73.3,70.5,29.78,ESE,121,0.0,0.0,91,0.00,BKN,,0.40,79.1,WeatherDisplay:10.37,2013-06-25 23:25:00,
2013-06-25 19:30:00,73.3,70.5,29.78,ESE,121,0.0,0.0,91,0.00,BKN,,0.40,53.1,WeatherDisplay:10.37,2013-06-25 23:30:00,
2013-06-25 19:35:00,73.3,70.5,29.78,ESE,121,0.0,0.0,91,0.00,BKN,,0.40,29.4,WeatherDisplay:10.37,2013-06-25 23:35:00,
2013-06-25 19:40:00,73.2,70.4,29.78,ESE,121,0.0,1.2,91,0.00,BKN,,0.40,26.0,WeatherDisplay:10.37,2013-06-25 23:40:00,
2013-06-25 19:45:00,73.1,70.3,29.78,ESE,121,0.1,1.2,91,0.00,BKN,,0.40,31.6,WeatherDisplay:10.37,2013-06-25 23:45:00,
2013-06-25 19:50:00,73.1,70.3,29.78,ESE,121,0.0,0.0,91,0.00,BKN,,0.40,29.4,WeatherDisplay:10.37,2013-06-25 23:50:00,
2013-06-25 19:55:00,73.1,70.6,29.78,ESE,121,0.0,0.0,92,0.00,BKN,,0.40,31.6,WeatherDisplay:10.37,2013-06-25 23:55:00,
2013-06-25 20:00:00,73.1,70.6,29.78,ESE,121,0.0,0.0,92,0.00,BKN,,0.40,36.2,WeatherDisplay:10.37,2013-06-26 00:00:00,
2013-06-25 20:05:00,73.1,70.6,29.78,ESE,121,0.1,1.2,92,0.00,BKN,,0.40,26.0,WeatherDisplay:10.37,2013-06-26 00:05:00,
2013-06-25 20:10:00,73.1,70.6,29.79,ESE,121,0.0,0.0,92,0.00,BKN,,0.40,21.5,WeatherDisplay:10.37,2013-06-26 00:10:00,
2013-06-25 20:15:00,73.0,70.5,29.79,ESE,121,0.0,1.2,92,0.00,BKN,,0.40,15.8,WeatherDisplay:10.37,2013-06-26 00:15:00,
2013-06-25 20:20:00,72.8,70.3,29.79,ESE,121,0.0,0.0,92,0.00,BKN,,0.40,7.9,WeatherDisplay:10.37,2013-06-26 00:20:00,
2013-06-25 20:25:00,72.6,70.1,29.79,ESE,121,0.0,0.0,92,0.00,BKN,,0.40,0.0,WeatherDisplay:10.37,2013-06-26 00:25:00,
2013-06-25 20:30:00,72.5,70.0,29.79,ESE,121,0.0,0.0,92,0.00,BKN,,0.40,0.0,WeatherDisplay:10.37,2013-06-26 00:30:00,
2013-06-25 20:35:00,72.4,69.9,29.79,ESE,121,0.0,0.0,92,0.00,BKN,,0.40,0.0,WeatherDisplay:10.37,2013-06-26 00:35:00,
2013-06-25 20:40:00,72.4,70.3,29.80,ESE,121,0.0,0.0,93,0.00,BKN,,0.40,0.0,WeatherDisplay:10.37,2013-06-26 00:40:00,
2013-06-25 20:45:00,72.4,70.3,29.79,ESE,121,0.0,0.0,93,0.00,BKN,,0.40,0.0,WeatherDisplay:10.37,2013-06-26 00:45:00,
2013-06-25 20:50:00,72.4,70.3,29.79,ESE,121,0.0,0.0,93,0.00,BKN,,0.40,0.0,WeatherDisplay:10.37,2013-06-26 00:50:00,
2013-06-25 20:55:00,72.4,70.3,29.79,ESE,121,0.0,0.0,93,0.00,BKN,,0.40,0.0,WeatherDisplay:10.37,2013-06-26 00:55:00,
2013-06-25 21:00:00,72.5,70.4,29.79,ESE,121,0.0,0.0,93,0.00,BKN,,0.40,0.0,WeatherDisplay:10.37,2013-06-26 01:00:00,
2013-06-25 21:05:00,72.4,70.3,29.79,ESE,121,0.0,0.0,93,0.00,BKN,,0.40,0.0,WeatherDisplay:10.37,2013-06-26 01:05:00,
2013-06-25 21:10:00,72.4,70.3,29.79,ESE,121,0.0,0.0,93,0.00,BKN,,0.40,0.0,WeatherDisplay:10.37,2013-06-26 01:10:00,
2013-06-25 21:15:00,72.3,70.2,29.79,ESE,121,0.0,0.0,93,0.00,BKN,,0.40,0.0,WeatherDisplay:10.37,2013-06-26 01:15:00,
2013-06-25 21:20:00,72.2,70.1,29.79,ESE,121,0.0,0.0,93,0.00,BKN,,0.40,0.0,WeatherDisplay:10.37,2013-06-26 01:20:00,
2013-06-25 21:25:00,72.0,69.9,29.79,ESE,121,1.5,4.6,93,0.00,BKN,,0.40,0.0,WeatherDisplay:10.37,2013-06-26 01:25:00,
2013-06-25 21:30:00,71.8,69.7,29.79,ESE,121,0.0,0.0,93,0.00,BKN,,0.40,0.0,WeatherDisplay:10.37,2013-06-26 01:30:00,
2013-06-25 21:35:00,71.7,69.6,29.80,ESE,121,0.0,0.0,93,0.00,BKN,,0.40,0.0,WeatherDisplay:10.37,2013-06-26 01:35:00,
2013-06-25 21:40:00,71.6,69.5,29.79,ESE,121,0.0,0.0,93,0.00,BKN,,0.40,0.0,WeatherDisplay:10.37,2013-06-26 01:40:00,
2013-06-25 21:45:00,71.6,69.5,29.80,ESE,121,0.1,1.2,93,0.00,BKN,,0.40,0.0,WeatherDisplay:10.37,2013-06-26 01:45:00,
2013-06-25 21:50:00,71.6,69.5,29.80,ESE,121,0.0,0.0,93,0.00,BKN,,0.40,0.0,WeatherDisplay:10.37,2013-06-26 01:50:00,
2013-06-25 21:55:00,71.5,69.4,29.80,ESE,121,0.0,0.0,93,0.00,BKN,,0.40,0.0,WeatherDisplay:10.37,2013-06-26 01:55:00,
2013-06-25 22:00:00,71.3,69.2,29.80,ESE,121,0.0,0.0,93,0.00,BKN,,0.40,0.0,WeatherDisplay:10.37,2013-06-26 02:00:00,
2013-06-25 22:05:00,71.2,69.1,29.80,ESE,121,0.0,0.0,93,0.00,BKN,,0.40,0.0,WeatherDisplay:10.37,2013-06-26 02:05:00,
2013-06-25 22:10:00,70.9,68.8,29.80,ESE,121,0.1,1.2,93,0.00,BKN,,0.40,0.0,WeatherDisplay:10.37,2013-06-26 02:10:00,
2013-06-25 22:15:00,70.8,68.7,29.80,ESE,121,0.0,0.0,93,0.00,BKN,,0.40,0.0,WeatherDisplay:10.37,2013-06-26 02:15:00,
2013-06-25 22:20:00,70.8,68.7,29.80,ESE,121,0.0,0.0,93,0.00,BKN,,0.40,0.0,WeatherDisplay:10.37,2013-06-26 02:20:00,
2013-06-25 22:26:00,70.7,68.6,29.79,ESE,121,0.0,1.2,93,0.00,BKN,,0.40,0.0,WeatherDisplay:10.37,2013-06-26 02:26:00,
2013-06-25 22:31:00,70.6,68.5,29.80,ESE,121,0.0,0.0,93,0.00,BKN,,0.40,0.0,WeatherDisplay:10.37,2013-06-26 02:31:00,
2013-06-25 22:36:00,70.6,68.8,29.80,ESE,121,0.0,1.0,94,0.00,BKN,,0.40,0.0,WeatherDisplay:10.37,2013-06-26 02:36:00,
2013-06-25 22:41:00,70.6,68.8,29.80,ESE,121,0.0,0.0,94,0.00,BKN,,0.40,0.0,WeatherDisplay:10.37,2013-06-26 02:41:00,
2013-06-25 22:46:00,70.5,68.7,29.80,ESE,121,0.0,0.0,94,0.00,BKN,,0.40,0.0,WeatherDisplay:10.37,2013-06-26 02:46:00,
2013-06-25 22:51:00,70.4,68.6,29.80,ESE,121,0.0,0.0,94,0.00,BKN,,0.40,0.0,WeatherDisplay:10.37,2013-06-26 02:51:00,
2013-06-25 22:56:00,70.3,68.2,29.80,ESE,121,0.1,0.0,93,0.00,BKN,,0.40,0.0,WeatherDisplay:10.37,2013-06-26 02:56:00,
2013-06-25 23:01:00,70.1,68.0,29.80,ESE,121,0.0,1.2,93,0.00,BKN,,0.40,0.0,WeatherDisplay:10.37,2013-06-26 03:01:00,
2013-06-25 23:06:00,70.2,68.4,29.79,ESE,121,0.0,1.2,94,0.00,BKN,,0.40,0.0,WeatherDisplay:10.37,2013-06-26 03:06:00,
2013-06-25 23:11:00,70.2,68.4,29.80,ESE,121,0.0,0.0,94,0.00,BKN,,0.40,0.0,WeatherDisplay:10.37,2013-06-26 03:11:00,
2013-06-25 23:16:00,70.2,68.4,29.80,ESE,121,0.0,0.0,94,0.00,BKN,,0.40,0.0,WeatherDisplay:10.37,2013-06-26 03:16:00,
2013-06-25 23:21:00,70.1,68.3,29.80,ESE,121,1.6,3.5,94,0.00,BKN,,0.40,0.0,WeatherDisplay:10.37,2013-06-26 03:21:00,
2013-06-25 23:26:00,70.1,68.3,29.80,ESE,121,0.0,0.0,94,0.00,BKN,,0.40,0.0,WeatherDisplay:10.37,2013-06-26 03:26:00,
2013-06-25 23:31:00,70.1,68.3,29.80,ESE,121,0.0,0.0,94,0.00,BKN,,0.40,0.0,WeatherDisplay:10.37,2013-06-26 03:31:00,
2013-06-25 23:36:00,70.0,68.2,29.80,ESE,121,0.0,1.2,94,0.00,BKN,,0.40,0.0,WeatherDisplay:10.37,2013-06-26 03:36:00,
2013-06-25 23:41:00,69.8,68.0,29.80,ESE,121,0.0,0.0,94,0.00,BKN,,0.40,0.0,WeatherDisplay:10.37,2013-06-26 03:41:00,
2013-06-25 23:46:00,69.7,67.9,29.80,ESE,121,0.0,0.0,94,0.00,BKN,,0.40,0.0,WeatherDisplay:10.37,2013-06-26 03:46:00,
2013-06-25 23:51:00,69.8,68.0,29.80,ESE,121,0.0,0.0,94,0.00,BKN,,0.40,0.0,WeatherDisplay:10.37,2013-06-26 03:51:00,
2013-06-25 23:56:00,69.8,68.0,29.80,ESE,121,3.0,4.6,94,0.00,BKN,,0.40,0.0,WeatherDisplay:10.37,2013-06-26 03:56:00,